Weather History for Antigo, WI

Change the Weather History Date:

Thursday, June 6, 2013

  Actual Average Record
Temperature  
Mean Temperature 50 °F -  
Max Temperature 54 °F 73 °F 88 °F (1950)
Min Temperature 46 °F 48 °F 33 °F (1998)
Degree Days  
Heating Degree Days 15    
Moisture  
Dew Point 47 °F    
Average Humidity 89    
Maximum Humidity 98    
Minimum Humidity 72    
Precipitation  
Precipitation 0.14 in - - ()
Sea Level Pressure  
Sea Level Pressure 30.02 in    
Wind  
Wind Speed 8 mph (ENE)    
Max Wind Speed 13 mph    
Max Gust Speed -    
Visibility 10 miles    
Events Rain    
Averages and records for this station are not official NWS values.
T = Trace of Precipitation, MM = Missing Value Source: NWS Daily Summary

Daily Weather History Graph

Daily Weather History Graph

Search for Another Location

Airport:

Trip Planner

Search our weather history database for the weather conditions in past years. The results will help you decide how hot, cold, wet, or windy it might be!

Date:

Astronomy

Jun. 06, 2013 Rise Set
Actual Time 5:10 AM CDT 8:40 PM CDT
Civil Twilight 4:33 AM CDT 9:17 PM CDT
Nautical Twilight 3:44 AM CDT 10:06 PM CDT
Astronomical Twilight 2:41 AM CDT 11:10 PM CDT
Moon 3:56 AM CDT (6/6) 6:58 PM CDT (6/6)
Length of Visible Light 16h 44m
Length of Day
15h 30m
Waning Crescent, 3% of the Moon is Illuminated
Jun 6
Waning Crescent
Jun 8
New
Jun 16
First Quarter
Jun 23
Full
Jun 29
Last Quarter

Hourly Weather History & Observations

Time (CDT) Temp. Dew Point Humidity Pressure Visibility Wind Dir Wind Speed Gust Speed Precip Events Conditions
12:15 AM 47.5 °F 46.6 °F 97% 30.04 in 7.0 mi East 9.2 mph - 0.01 in Rain Light Rain
12:35 AM 47.7 °F 46.8 °F 97% 30.04 in 10.0 mi East 9.2 mph - 0.02 in Rain Light Rain
12:55 AM 47.5 °F 46.6 °F 97% 30.03 in 10.0 mi East 10.4 mph - 0.02 in   Light Drizzle
1:15 AM 47.5 °F 46.6 °F 97% 30.02 in 7.0 mi East 11.5 mph - N/A   Light Drizzle
1:35 AM 47.5 °F 46.8 °F 97% 30.02 in 10.0 mi East 9.2 mph - N/A   Overcast
1:55 AM 47.5 °F 46.6 °F 97% 30.01 in 10.0 mi East 8.1 mph - N/A   Overcast
2:15 AM 47.5 °F 46.6 °F 97% 30.01 in 10.0 mi East 6.9 mph - N/A   Overcast
2:35 AM 47.5 °F 46.6 °F 97% 30.02 in 10.0 mi East 6.9 mph - N/A   Overcast
2:55 AM 47.3 °F 46.6 °F 97% 30.02 in 7.0 mi East 6.9 mph - 0.01 in Rain Light Rain
3:15 AM 47.3 °F 46.4 °F 97% 30.02 in 7.0 mi East 6.9 mph - 0.02 in Rain Rain
3:35 AM 46.9 °F 46.4 °F 98% 30.01 in 10.0 mi East 9.2 mph - 0.04 in Rain Rain
3:55 AM 46.9 °F 46.4 °F 98% 30.00 in 7.0 mi East 9.2 mph - 0.08 in Rain Light Rain
4:15 AM 46.9 °F 46.4 °F 98% 30.00 in 10.0 mi East 6.9 mph - 0.01 in Rain Light Rain
4:35 AM 46.9 °F 46.2 °F 97% 30.00 in 10.0 mi East 6.9 mph - 0.01 in Rain Light Rain
4:55 AM 46.9 °F 46.2 °F 97% 30.00 in 10.0 mi ENE 6.9 mph - 0.01 in   Overcast
5:15 AM 46.9 °F 46.0 °F 97% 30.01 in 10.0 mi East 6.9 mph - N/A   Overcast
5:35 AM 46.9 °F 45.9 °F 96% 30.00 in 10.0 mi ENE 5.8 mph - N/A   Overcast
5:55 AM 46.8 °F 45.9 °F 97% 30.01 in 10.0 mi ENE 5.8 mph - N/A   Light Drizzle
6:15 AM 46.6 °F 45.9 °F 97% 30.01 in 7.0 mi East 4.6 mph - 0.01 in Rain Light Rain
6:35 AM 46.6 °F 45.9 °F 97% 30.01 in 7.0 mi East 4.6 mph - 0.01 in Rain Light Rain
6:55 AM 46.6 °F 45.9 °F 97% 30.01 in 7.0 mi ENE 6.9 mph - 0.02 in Rain Light Rain
7:15 AM 46.6 °F 45.9 °F 97% 30.01 in 10.0 mi ENE 8.1 mph - N/A   Light Drizzle
7:35 AM 46.6 °F 45.7 °F 97% 30.01 in 10.0 mi East 8.1 mph - N/A   Overcast
7:55 AM 46.6 °F 45.9 °F 97% 30.01 in 10.0 mi East 5.8 mph - N/A   Overcast
8:15 AM 46.6 °F 45.5 °F 96% 30.01 in 10.0 mi East 6.9 mph - N/A   Overcast
8:35 AM 46.9 °F 45.9 °F 96% 30.02 in 10.0 mi East 5.8 mph - N/A   Overcast
8:55 AM 46.9 °F 45.5 °F 95% 30.02 in 10.0 mi East 8.1 mph - N/A   Overcast
9:15 AM 47.1 °F 45.3 °F 93% 30.02 in 10.0 mi East 6.9 mph - N/A   Overcast
9:35 AM 47.3 °F 45.5 °F 93% 30.02 in 10.0 mi East 8.1 mph - N/A   Overcast
9:55 AM 47.7 °F 45.7 °F 93% 30.02 in 10.0 mi East 8.1 mph - N/A   Overcast
10:15 AM 48.2 °F 46.0 °F 92% 30.02 in 10.0 mi East 8.1 mph - N/A   Overcast
10:35 AM 48.7 °F 46.0 °F 90% 30.02 in 10.0 mi East 9.2 mph - N/A   Overcast
10:55 AM 50.4 °F 47.7 °F 90% 30.02 in 10.0 mi East 8.1 mph - N/A   Overcast
11:15 AM 50.2 °F 46.8 °F 88% 30.02 in 10.0 mi ENE 10.4 mph - N/A   Overcast
11:35 AM 50.7 °F 46.9 °F 87% 30.02 in 10.0 mi East 8.1 mph - N/A   Overcast
11:55 AM 50.9 °F 46.4 °F 85% 30.02 in 10.0 mi ENE 12.7 mph - N/A   Overcast
12:15 PM 51.3 °F 47.1 °F 86% 30.02 in 10.0 mi East 6.9 mph - N/A   Overcast
12:35 PM 52.5 °F 47.3 °F 82% 30.02 in 10.0 mi East 8.1 mph - N/A   Overcast
12:55 PM 52.0 °F 46.6 °F 82% 30.02 in 10.0 mi East 11.5 mph - N/A   Overcast
1:15 PM 52.0 °F 47.1 °F 83% 30.02 in 10.0 mi ENE 8.1 mph - N/A   Overcast
1:35 PM 51.8 °F 46.9 °F 83% 30.02 in 10.0 mi ENE 8.1 mph - N/A   Overcast
1:55 PM 52.2 °F 47.3 °F 83% 30.02 in 10.0 mi East 6.9 mph - N/A   Overcast
2:15 PM 52.7 °F 47.3 °F 82% 30.02 in 10.0 mi East 9.2 mph - N/A   Overcast
2:35 PM 52.9 °F 48.0 °F 84% 30.02 in 10.0 mi East 6.9 mph - N/A   Overcast
2:55 PM 52.9 °F 47.8 °F 83% 30.02 in 10.0 mi East 8.1 mph - N/A   Overcast
3:15 PM 53.2 °F 47.8 °F 82% 30.02 in 10.0 mi ENE 10.4 mph - N/A   Overcast
3:35 PM 53.1 °F 47.5 °F 81% 30.01 in 10.0 mi ENE 6.9 mph - N/A   Overcast
3:55 PM 52.9 °F 46.4 °F 79% 30.02 in 10.0 mi ENE 9.2 mph - N/A   Overcast
4:15 PM 52.9 °F 46.6 °F 79% 30.02 in 10.0 mi East 8.1 mph - N/A   Overcast
4:35 PM 53.1 °F 46.8 °F 79% 30.02 in 10.0 mi ENE 6.9 mph - N/A   Overcast
4:55 PM 53.6 °F 47.1 °F 79% 30.02 in 10.0 mi East 5.8 mph - N/A   Overcast
5:15 PM 53.6 °F 46.9 °F 78% 30.02 in 10.0 mi East 8.1 mph - N/A   Overcast
5:35 PM 53.6 °F 46.2 °F 76% 30.02 in 10.0 mi East 6.9 mph - N/A   Overcast
5:55 PM 54.0 °F 46.4 °F 76% 30.01 in 10.0 mi East 6.9 mph - N/A   Overcast
6:15 PM 54.1 °F 46.2 °F 75% 30.01 in 10.0 mi East 6.9 mph - N/A   Overcast
6:35 PM 53.6 °F 44.8 °F 72% 30.02 in 10.0 mi East 8.1 mph - N/A   Overcast
6:55 PM 53.4 °F 45.3 °F 74% 30.02 in 10.0 mi East 5.8 mph - N/A   Overcast
7:15 PM 53.1 °F 45.3 °F 75% 30.02 in 10.0 mi East 4.6 mph - N/A   Overcast
7:35 PM 52.7 °F 45.7 °F 77% 30.02 in 10.0 mi East 3.5 mph - N/A   Overcast
7:55 PM 52.2 °F 46.4 °F 81% 30.02 in 10.0 mi ENE 5.8 mph - N/A   Overcast
8:15 PM 52.0 °F 47.3 °F 84% 30.02 in 10.0 mi NE 4.6 mph - N/A   Overcast
8:35 PM 51.4 °F 48.0 °F 88% 30.01 in 10.0 mi NE 4.6 mph - N/A   Overcast
8:55 PM 51.1 °F 48.4 °F 90% 30.01 in 10.0 mi NE 5.8 mph - N/A   Overcast
9:15 PM 50.4 °F 47.5 °F 90% 30.01 in 10.0 mi NNE 5.8 mph - N/A   Overcast
9:35 PM 50.4 °F 46.9 °F 88% 30.02 in 10.0 mi NE 5.8 mph - N/A   Overcast
9:55 PM 49.6 °F 47.1 °F 91% 30.02 in 10.0 mi Calm Calm - N/A   Overcast
10:15 PM 49.1 °F 46.9 °F 92% 30.02 in 10.0 mi NE 3.5 mph - N/A   Overcast
10:35 PM 49.1 °F 47.3 °F 93% 30.02 in 10.0 mi Calm Calm - N/A   Overcast
10:55 PM 49.1 °F 47.3 °F 93% 30.02 in 10.0 mi NNE 3.5 mph - N/A   Overcast
11:15 PM 49.3 °F 46.4 °F 90% 30.01 in 10.0 mi NNE 5.8 mph - N/A   Overcast
11:35 PM 49.3 °F 46.4 °F 90% 30.01 in 10.0 mi NE 8.1 mph - N/A   Overcast
11:55 PM 49.3 °F 46.0 °F 89% 30.01 in 10.0 mi NE 8.1 mph - N/A   Overcast